Location: Unspecified
(0.0000°N, 0.0000°E)
Time: 10:34:34
(UTC+02:00)

Cosmos 1263 Rocket - Visible Passes

Search period start: 02 August 2014 00:00
Search period end: 12 August 2014 00:00
Orbit: 322 x 599 km, 82.9° (Epoch: 01 August)

Date Brightness Start Highest point End Pass type
(mag) Time Alt. Az. Time Alt. Az. Time Alt. Az.
02 Aug 2.8 20:58:08 10° NNE 21:01:55 36° E 21:04:28 17° SE visible
03 Aug 5.2 22:01:37 10° NW 22:04:03 16° W 22:06:24 10° SW visible
04 Aug 3.8 21:28:19 10° NNW 21:32:02 36° W 21:35:30 10° SSW visible
05 Aug 2.1 20:55:56 10° N 20:59:56 84° E 21:03:37 10° S visible
07 Aug 5.1 21:27:12 10° NW 21:29:40 16° W 21:32:01 10° SW visible
08 Aug 3.6 20:53:51 10° NNW 20:57:29 40° W 21:00:49 10° SSW visible
11 Aug 5.2 07:33:49 10° SE 07:35:37 14° E 07:37:29 10° ENE visible
11 Aug 5.0 20:52:03 10° NW 20:54:32 18° W 20:56:54 10° SW visible
